Location: Choisy
(48.7685°N, 2.4187°E)
Time: 21:43:21
(UTC+00:00)

Cosmos 1328 - Pass Details

Date: 24 October 2021
Orbit: 529 x 552 km, 82.5° (Epoch: 04 December)

Event Time Altitude Azimuth Distance (km) Brightness Sun altitude
Rises 17:17:51 0° 355° (N) 2,738 7.3 -6.3°
Reaches altitude 10° 17:20:05 10° 1° (N) 1,840 6.4 -6.7°
Maximum altitude 17:24:00 47° 76° (ENE) 742 4.1 -7.3°
Drops below altitude 10° 17:27:54 10° 151° (SSE) 1,828 6.3 -7.9°
Sets 17:30:07 0° 157° (SSE) 2,716 7.2 -8.3°
